| time (UTC) | temp F | wind direction | speed MPH | gust MPH | rain 1hr in | rain 24hr in | rain mn in | humidity % | barometer mb |
| 20260504031406 | 84 | 254 | 9.0 | 18.0 | 0.00 | 0.00 | 0.00 | 19 | 1007.2 |
| 20260504024405 | 86 | 264 | 8.0 | 20.0 | 0.00 | 0.00 | 0.00 | 18 | 1006.7 |
| 20260504023405 | 86 | 234 | 10.0 | 18.0 | 0.00 | 0.00 | 0.00 | 17 | 1006.5 |
| 20260504021404 | 87 | 245 | 8.0 | 18.0 | 0.00 | 0.00 | 0.00 | 17 | 1006.3 |
| 20260504020404 | 88 | 234 | 10.0 | 20.0 | 0.00 | 0.00 | 0.00 | 17 | 1006.1 |
| 20260504014408 | 89 | 242 | 8.0 | 16.0 | 0.00 | 0.00 | 0.00 | 17 | 1005.9 |
| 20260504013404 | 89 | 230 | 9.0 | 20.0 | 0.00 | 0.00 | 0.00 | 17 | 1005.7 |
| 20260504011408 | 91 | 235 | 10.0 | 20.0 | 0.00 | 0.00 | 0.00 | 16 | 1005.7 |
| 20260504010404 | 91 | 231 | 12.0 | 22.0 | 0.00 | 0.00 | 0.00 | 15 | 1005.7 |
| 20260504004403 | 93 | 236 | 10.0 | 20.0 | 0.00 | 0.00 | 0.00 | 14 | 1005.8 |
| 20260504003408 | 94 | 237 | 9.0 | 22.0 | 0.00 | 0.00 | 0.00 | 14 | 1005.8 |
| 20260504001404 | 95 | 245 | 10.0 | 20.0 | 0.00 | 0.00 | 0.00 | 13 | 1005.7 |
| 20260503234404 | 97 | 253 | 10.0 | 18.0 | 0.00 | 0.00 | 0.00 | 13 | 1005.6 |
| 20260503231407 | 99 | 234 | 6.0 | 13.0 | 0.00 | 0.00 | 0.00 | 12 | 1005.5 |
| 20260503230407 | 98 | 262 | 4.0 | 16.0 | 0.00 | 0.00 | 0.00 | 12 | 1005.5 |
| 20260503223407 | 99 | 223 | 9.0 | 14.0 | 0.00 | 0.00 | 0.00 | 12 | 1006.4 |
| 20260503221404 | 99 | 241 | 9.0 | 17.0 | 0.00 | 0.00 | 0.00 | 13 | 1006.7 |
| 20260503213404 | 99 | 252 | 7.0 | 16.0 | 0.00 | 0.00 | 0.00 | 13 | 1007.2 |
| 20260503210407 | 100 | 129 | 6.0 | 16.0 | 0.00 | 0.00 | 0.00 | 14 | 1007.6 |
| 20260503204404 | 100 | 159 | 3.0 | 12.0 | 0.00 | 0.00 | 0.00 | 14 | 1007.9 |
| 20260503203404 | 100 | 190 | 6.0 | 15.0 | 0.00 | 0.00 | 0.00 | 15 | 1008.1 |
| 20260503200407 | 98 | 151 | 2.0 | 12.0 | 0.00 | 0.00 | 0.00 | 17 | 1008.6 |
| 20260503194408 | 97 | 175 | 6.0 | 15.0 | 0.00 | 0.00 | 0.00 | 18 | 1008.9 |
| 20260503193407 | 97 | 192 | 6.0 | 14.0 | 0.00 | 0.00 | 0.00 | 19 | 1009.1 |
| 20260503190405 | 96 | 169 | 3.0 | 13.0 | 0.00 | 0.00 | 0.00 | 18 | 1009.5 |
| 20260503184405 | 95 | 162 | 5.0 | 12.0 | 0.00 | 0.00 | 0.00 | 20 | 1010.0 |
| 20260503181407 | 93 | 184 | 3.0 | 12.0 | 0.00 | 0.00 | 0.00 | 21 | 1010.3 |
| 20260503180403 | 92 | 174 | 7.0 | 14.0 | 0.00 | 0.00 | 0.00 | 26 | 1010.6 |
| 20260503174404 | 90 | 119 | 6.0 | 12.0 | 0.00 | 0.00 | 0.00 | 23 | 1010.8 |
| 20260503173408 | 89 | 139 | 7.0 | 14.0 | 0.00 | 0.00 | 0.00 | 24 | 1010.9 |
| 20260503171404 | 87 | 127 | 9.0 | 20.0 | 0.00 | 0.00 | 0.00 | 25 | 1010.9 |
| 20260503170404 | 87 | 107 | 7.0 | 16.0 | 0.00 | 0.00 | 0.00 | 25 | 1010.9 |
| 20260503150407 | 78 | 111 | 2.0 | 7.0 | 0.00 | 0.00 | 0.00 | 36 | 1011.1 |
| 20260503131405 | 71 | 98 | 1.0 | 2.0 | 0.00 | 0.00 | 0.00 | 36 | 1010.2 |
| 20260503130405 | 71 | 98 | 1.0 | 2.0 | 0.00 | 0.00 | 0.00 | 34 | 1010.2 |
| 20260503071404 | 75 | 100 | 0.0 | 1.0 | 0.00 | 0.00 | 0.00 | 28 | 1010.4 |
| 20260503070404 | 75 | 100 | 3.0 | 6.0 | 0.00 | 0.00 | 0.00 | 28 | 1010.6 |
| 20260503054406 | 78 | 87 | 1.0 | 3.0 | 0.00 | 0.00 | 0.00 | 22 | 1009.8 |
| 20260503053404 | 78 | 87 | 1.0 | 3.0 | 0.00 | 0.00 | 0.00 | 22 | 1009.8 |
| 20260503050405 | 78 | 88 | 0.0 | 1.0 | 0.00 | 0.00 | 0.00 | 22 | 1009.7 |
| 20260503044404 | 78 | 88 | 0.0 | 0.0 | 0.00 | 0.00 | 0.00 | 24 | 1009.7 |
| 20260503043405 | 79 | 88 | 0.0 | 2.0 | 0.00 | 0.00 | 0.00 | 22 | 1009.5 |
| 20260503041404 | 79 | 88 | 1.0 | 2.0 | 0.00 | 0.00 | 0.00 | 23 | 1009.2 |
| 20260503040404 | 80 | 88 | 1.0 | 2.0 | 0.00 | 0.00 | 0.00 | 23 | 1009.2 |